Regional Weather Roundup
Issued by NWS

Home | Current Version | Previous Version | Text Only | Print | Product List | Glossary Off
Versions: 1 2 3 4 5 6 7 8 9 10 11 12 13 14 15 16 17 18 19 20 21 22 23 24 25 26 27 28 29 30 31 32 33 34 35 36 37 38 39 40 41 42 43 44 45 46 47 48 49 50

507
ASUS43 KIND 220009
RWRIN

WEATHER ROUNDUP FOR INDIANA
NATIONAL WEATHER SERVICE INDIANAPOLIS IN
800 PM EDT SAT OCT 21 2017

NOTE: "FAIR" INDICATES FEW OR NO CLOUDS BELOW 12,000 FEET WITH NO
SIGNIFICANT WEATHER AND/OR OBSTRUCTIONS TO VISIBILITY.

* - STATION DOES NOT REPORT WEATHER SUCH AS PRECIPITATION OR FOG.

+ - STATION NOT QUALITY CONTROLLED BY THE NATIONAL WEATHER SERVICE.
    USE DATA WITH CAUTION...ESPECIALLY DEWPOINT AND RELATIVE
    HUMIDITY OBSERVATIONS.

INZ001>003-010>013-019-020-220100-
NORTHWEST INDIANA

CITY           SKY/WX    TMP DP  RH WIND       PRES   REMARKS
GARY /AIRPORT/ PTCLDY    73  55  53 SE12      30.04R
KNOX *+        CLOUDY    68  54  60 S9        30.08S
LA PORTE +     CLOUDY    68  55  63 S8        30.08S
6HR MIN TEMP:  68; 6HR MAX TEMP:  76;

MICHIGAN CITY+ CLOUDY    70  54  56 S7        30.07R
MONTICELLO +   PTCLDY    69  53  55 S7        30.09R
6HR MIN TEMP:  69; 6HR MAX TEMP:  76;

RENSSELAER +   PTCLDY    70  50  49 S9        30.09R
VALPARAISO     PTCLDY    71  57  61 SE13      30.07R
6HR MIN TEMP:  71; 6HR MAX TEMP:  77;


$$

LMZ046-743>745-220100-
SOUTHERN LAKE MICHIGAN

STATION/POSITION TIME  TEMP    WIND        PRES    WAVE
                       AIR SEA DIR/SP/G            HT
                 (UTC) (F)     (DEG/KT/KT) (MB)    (FT)
BURNS HARBOR     2340   72     170/ 11/ 19 1017.6R
MICHIGAN CITY    2340   72     160/  9/ 11   N/A
5NW MICH CITY    0000   67 58  170/ 12/ 16   N/A     1

$$

INZ004-005-014>016-021>024-220100-
NORTH CENTRAL INDIANA

CITY           SKY/WX    TMP DP  RH WIND       PRES   REMARKS
GOSHEN         CLOUDY    66  52  60 SE7       30.12R
6HR MIN TEMP:  66; 6HR MAX TEMP:  75;

LOGANSPORT +   CLOUDY    64  52  63 S8        30.13R
PERU/GRISSOM   MOCLDY    67  53  61 S9        30.13R
6HR MIN TEMP:  67; 6HR MAX TEMP:  75; 6HR PCP: TRACE;

SOUTH BEND     PTCLDY    68  54  60 S9        30.10R
6HR MIN TEMP:  68; 6HR MAX TEMP:  75; 6HR PCP: TRACE;

WARSAW +       CLOUDY    68  54  60 SE3       30.12S

$$

INZ006>009-017-018-025>027-220100-
NORTHEAST INDIANA

CITY           SKY/WX    TMP DP  RH WIND       PRES   REMARKS
AUBURN +       PTCLDY    63  43  48 CALM      30.15S
FORT WAYNE     MOCLDY    63  44  50 S8        30.15R
6HR MIN TEMP:  63; 6HR MAX TEMP:  77;

HUNTINGTON +   MOCLDY    67  46  46 S6        30.14S
6HR MIN TEMP:  67; 6HR MAX TEMP:  75;

KENDALLVILLE + MOCLDY    65  43  44 S6        30.14S

$$

INZ028-029-035-036-043>045-051>053-220100-
WEST CENTRAL INDIANA

CITY           SKY/WX    TMP DP  RH WIND       PRES   REMARKS
GREENCASTLE +  CLEAR     64  50  59 S8        30.14R
LAFAYETTE      CLEAR     69  56  62 S9        30.09R
6HR MIN TEMP:  69; 6HR MAX TEMP:  76;

TERRE HAUTE    CLEAR     68  53  58 SE10      30.11S
6HR MIN TEMP:  68; 6HR MAX TEMP:  76;


$$

INZ030>032-037>040-046>048-054>057-064-065-220100-
CENTRAL INDIANA

CITY           SKY/WX    TMP DP  RH WIND       PRES   REMARKS
CP ATTERBURY + CLEAR     64  50  59 SE5       30.18R
COLUMBUS       PTCLDY    64  46  52 S6        30.18R
FRANKFORT +    CLOUDY    67  54  63 S5        30.14R
6HR MIN TEMP:  67; 6HR MAX TEMP:  79;

GREENWOOD *+   PTCLDY    70  53  53 S8        30.17R
6HR MIN TEMP:  70; 6HR MAX TEMP:  80;

INDIANAPOLIS   MOCLDY    67  50  54 SE12      30.15R
6HR MIN TEMP:  67; 6HR MAX TEMP:  76;

-EAGLE CREEK   CLEAR     70  49  47 SE8       30.15R
6HR MIN TEMP:  70; 6HR MAX TEMP:  76;

KOKOMO +       MOCLDY    68  53  58 S12       30.15R
6HR MIN TEMP:  68; 6HR MAX TEMP:  75;

MT COMFORT *+  PTCLDY    64  55  72 S7        30.17R
SHELBYVILLE    PTCLDY    62  50  64 S7        30.17R
6HR MIN TEMP:  62; 6HR MAX TEMP:  77;

ZIONSVILLE +   PTCLDY    66  51  59 S9        30.16R
6HR MIN TEMP:  66; 6HR MAX TEMP:  74;


$$

INZ033-034-041-042-049-050-058-059-220100-
EAST CENTRAL INDIANA

CITY           SKY/WX    TMP DP  RH WIND       PRES   REMARKS
MUNCIE         PTCLDY    69  48  47 S7        30.17R
6HR MIN TEMP:  69; 6HR MAX TEMP:  77;

RICHMOND +     CLOUDY    61  46  59 S5        30.21R

$$

INZ060-061-067>069-081>083-085>088-220100-
SOUTHWEST INDIANA

CITY           SKY/WX    TMP DP  RH WIND       PRES   REMARKS
EVANSVILLE     LGT RAIN  71  54  54 SE3       30.13R
6HR MIN TEMP:  71; 6HR MAX TEMP:  77; 6HR PCP: TRACE;

HUNTINGBURG +  PTCLDY    64  53  67 SE8       30.16R
6HR MIN TEMP:  64; 6HR MAX TEMP:  75;

WASHINGTON +   PTCLDY    64  50  60 S7        30.13S
6HR MIN TEMP:  64; 6HR MAX TEMP:  76;


$$

INZ062-063-066-070>080-084-089>092-220100-
SOUTH CENTRAL AND SOUTHEAST INDIANA

CITY           SKY/WX    TMP DP  RH WIND       PRES   REMARKS
BLOOMINGTON    CLEAR     67  48  50 SE6       30.16R
6HR MIN TEMP:  67; 6HR MAX TEMP:  76;

MADISON *+     PTCLDY    63  45  51 CALM      30.22R
NORTH VERNON + PTCLDY    61  48  63 SE3       30.20R
SEYMOUR +      MOCLDY    68  48  49 SE3       30.18R

$$





USA.gov is the U.S. government's official web portal to all federal, state and local government web resources and services.